RH
29 29 28 24 23 23 23 24 23 23 25 26 27 24 20 18 16 15 14 16 20 19 16 14 13 14 13 9 10 16 25 28 28 28 23 22 25 28 33 34 32 35 35 37 41 40 39 38 37 37 36 37 40 41 43 44 44 45 46 47 44 44 52 57 61 65 68 71 75 72 69 69 68 65 62 61 66 72 74 75 77 77 73 70 69 70
33 30 28 23 19 20 21 23 24 25 29 30 29 26 22 21 16 14 16 16 18 21 18 16 15 16 15 11 9 14 26 31 29 26 22 21 22 23 31 33 32 35 35 39 44 39 36 37 37 36 36 38 40 41 45 49 50 48 45 45 46 47 53 58 61 64 68 71 73 71 69 72 72 68 65 68 73 74 74 78 80 78 75 73 72 72
38 35 28 23 19 18 22 27 27 27 32 33 29 28 29 27 20 16 19 19 18 21 20 17 17 17 15 14 11 11 22 29 27 24 18 17 17 18 27 30 31 36 36 41 44 37 35 38 36 36 36 39 42 44 47 51 52 49 45 46 49 51 54 59 62 64 67 71 72 70 69 74 76 74 71 74 76 75 76 79 81 80 78 76 75 73
33 33 29 23 19 22 27 32 33 32 34 33 30 34 36 33 29 23 19 21 21 21 20 17 17 17 15 15 13 12 21 27 25 22 16 13 14 16 25 28 28 34 37 40 40 34 34 37 35 35 36 39 44 47 53 57 54 49 47 48 49 51 55 59 62 65 69 72 73 73 74 78 80 78 76 75 74 74 76 79 81 80 78 77 76 73
26 24 26 28 26 29 32 33 34 34 34 34 32 36 36 32 33 26 20 24 25 21 20 18 17 18 15 15 14 12 23 30 25 23 19 14 14 16 26 31 28 31 35 35 33 33 35 35 34 34 36 41 45 46 52 57 58 56 55 54 54 56 61 64 65 69 72 73 73 75 77 78 81 81 77 72 71 72 75 79 82 81 78 78 76 75
26 18 20 32 36 33 32 33 34 34 35 34 33 35 33 31 33 28 24 29 30 24 19 17 18 19 15 14 15 12 22 31 26 24 22 17 16 19 29 33 27 30 34 33 31 32 35 34 33 35 37 42 43 42 46 49 52 58 62 61 58 60 63 64 68 71 74 76 75 75 77 77 79 81 78 72 70 74 79 81 83 83 81 79 78 77
26 19 17 30 40 37 32 32 33 33 35 34 33 34 32 33 34 32 29 31 32 24 17 16 15 17 16 15 16 14 20 30 27 22 22 20 19 23 31 30 24 27 33 35 35 33 32 32 32 34 36 39 41 42 45 45 45 52 63 66 63 62 63 63 66 71 75 76 75 75 78 78 77 80 79 74 73 79 83 83 84 84 83 80 80 79
24 19 19 25 38 44 36 30 31 34 35 33 33 34 32 32 35 34 30 30 32 25 22 22 14 14 20 19 16 15 18 28 28 23 22 21 20 26 31 26 23 27 30 33 35 31 29 31 32 33 35 38 41 41 42 44 44 47 56 63 64 67 71 69 69 72 75 76 76 78 78 75 77 81 79 75 77 82 84 83 83 84 85 82 81 78
23 20 20 22 34 46 41 29 29 35 35 31 33 36 34 32 35 35 31 29 32 30 29 26 15 12 21 23 18 16 18 25 27 24 24 23 21 25 29 25 24 28 29 30 30 29 29 31 32 32 34 38 42 42 42 44 45 46 49 53 58 65 72 73 71 73 76 76 75 76 75 75 78 78 75 76 80 85 86 84 83 85 86 83 80 76
28 26 24 25 32 43 44 33 29 36 37 33 38 42 38 35 35 35 34 30 30 33 33 27 19 13 17 21 20 18 17 20 26 25 24 24 23 23 24 22 23 27 30 31 29 32 34 31 31 32 33 39 43 43 44 44 45 48 50 49 54 62 67 69 70 71 74 73 71 71 73 75 75 71 73 78 79 81 84 85 86 87 86 82 79 75
32 32 31 32 34 39 44 39 34 37 37 36 42 43 40 39 35 34 36 30 29 36 34 28 24 17 13 15 17 18 16 21 29 28 24 24 23 23 23 20 21 26 32 33 31 34 37 33 31 32 33 38 42 45 46 45 46 51 52 51 54 59 62 65 68 71 72 70 67 69 71 72 70 69 72 76 75 78 81 83 87 88 85 80 76 73
36 38 39 35 36 42 47 45 40 36 35 39 41 40 41 41 37 37 37 32 35 41 32 25 26 21 14 12 13 16 20 26 31 28 25 24 22 24 24 20 22 27 31 33 32 33 36 35 32 31 33 36 40 44 46 46 48 52 53 53 54 57 60 64 70 72 72 70 68 71 71 69 69 70 73 76 77 79 80 83 86 86 84 80 75 72
42 40 43 38 36 44 51 50 44 35 36 40 38 38 43 43 43 43 38 35 38 39 30 23 25 24 17 12 11 16 24 30 31 28 27 24 21 23 24 21 21 25 28 30 31 33 35 36 32 29 32 34 36 42 45 46 49 52 52 53 55 58 61 67 72 73 72 71 69 70 68 66 68 71 74 78 79 79 80 83 85 84 84 81 75 71
53 46 48 45 40 45 51 51 45 37 38 41 36 40 44 43 47 45 38 38 36 31 28 26 26 28 23 16 13 17 25 29 29 30 28 24 21 21 24 22 18 21 26 28 30 34 36 35 31 29 32 33 36 41 43 44 47 49 50 51 53 57 62 67 70 71 71 70 68 67 66 66 69 71 72 75 78 80 82 84 84 84 83 77 71 68
58 54 52 48 44 45 49 51 48 41 37 37 35 40 43 41 43 41 36 36 30 26 29 31 31 30 25 21 17 17 26 31 31 31 28 23 21 21 24 24 21 22 25 27 31 35 37 35 31 30 32 33 37 40 41 43 46 47 48 51 53 56 61 65 68 71 71 69 67 67 68 69 70 70 70 73 78 81 84 85 84 83 79 74 71 67
56 52 45 41 42 46 47 47 50 46 38 36 37 40 42 40 39 37 34 32 30 32 35 35 34 27 22 26 23 17 21 30 34 33 28 24 22 23 25 25 26 27 26 28 34 37 39 36 31 31 32 33 37 39 39 42 44 44 47 52 56 57 59 64 68 71 69 68 70 70 70 71 69 69 70 73 76 80 84 85 83 80 76 74 74 68
53 50 41 37 41 47 47 45 50 50 42 37 39 41 40 39 38 38 38 36 37 41 39 34 32 26 24 28 27 22 20 28 35 33 29 27 23 24 25 23 27 30 26 28 34 36 40 38 31 32 33 33 35 37 38 41 42 43 47 53 57 57 58 62 67 67 66 68 72 71 69 67 67 69 71 72 75 79 83 83 80 78 76 76 74 66
48 47 43 40 44 47 47 48 52 52 44 37 36 39 39 38 38 38 39 39 40 40 37 31 29 30 31 28 28 26 22 27 35 33 31 29 24 23 23 21 26 29 26 26 29 33 39 37 30 32 33 32 34 37 38 40 41 43 45 51 58 58 58 61 63 64 64 66 70 71 68 65 67 71 72 73 77 80 81 82 80 77 75 73 70 64
49 49 46 43 47 46 44 51 57 55 46 38 35 37 38 40 41 41 41 41 40 39 36 31 28 31 33 31 31 29 25 29 35 32 31 27 22 22 22 20 25 29 29 29 31 34 36 33 30 31 34 33 34 37 38 39 41 43 43 48 56 59 58 59 61 62 63 65 66 69 68 67 70 74 75 75 77 79 79 82 82 78 74 70 66 64
53 56 49 43 49 48 44 50 58 57 49 42 39 37 36 39 41 41 39 36 36 36 35 36 33 30 29 29 32 32 30 33 34 30 27 24 21 23 22 21 26 30 29 30 35 37 33 28 29 31 33 34 34 36 38 39 41 43 43 46 52 57 57 57 59 61 63 65 65 66 68 70 72 75 76 76 76 77 78 81 81 76 72 69 66 63
57 64 55 43 48 52 50 50 55 56 50 44 43 39 36 38 39 40 38 34 35 36 36 42 42 32 26 27 32 34 34 34 33 28 24 23 21 21 22 24 27 28 26 27 34 38 33 27 28 31 33 34 35 36 38 39 42 44 44 46 51 56 57 57 58 61 63 65 64 66 69 71 72 73 74 76 76 75 75 76 77 75 72 70 66 59
61 67 55 40 45 53 53 48 48 53 48 41 41 39 37 37 36 40 42 38 36 35 35 41 42 35 27 26 28 33 35 35 33 29 26 27 26 23 27 30 27 23 23 26 32 37 34 29 29 31 32 34 35 36 37 39 43 45 45 46 52 57 57 57 58 61 63 64 65 67 68 70 72 72 72 74 75 73 72 72 73 73 71 68 62 52
63 67 55 42 43 52 53 45 44 51 48 40 36 35 36 35 34 40 44 40 36 35 33 34 37 35 32 29 28 31 35 33 31 30 29 30 28 25 27 30 25 23 27 30 33 36 33 28 29 31 32 35 36 35 37 39 43 46 46 48 53 57 58 57 59 61 63 64 66 68 69 69 70 71 72 73 72 69 68 71 72 72 69 65 58 49
64 63 55 46 43 47 51 46 45 51 50 43 38 36 36 36 36 39 39 37 37 36 32 32 35 37 36 35 31 30 33 33 30 29 30 30 29 27 30 30 25 24 27 30 35 38 32 26 27 30 32 34 36 36 37 40 44 46 48 50 54 58 59 58 59 62 64 65 65 67 69 67 65 67 68 68 67 66 67 70 73 70 66 62 56 50
66 62 52 47 45 47 52 50 50 54 53 48 43 40 38 36 37 40 38 37 39 37 35 36 36 36 37 38 37 33 31 31 30 27 27 29 27 28 36 36 27 23 26 31 36 37 29 25 28 30 32 34 35 37 37 40 44 47 49 52 55 59 60 60 61 62 63 65 64 66 68 65 63 64 63 62 63 65 68 72 73 69 64 63 59 55
69 65 53 50 47 48 53 52 51 53 53 51 45 39 39 38 37 41 40 41 42 38 38 39 37 36 36 35 41 42 34 31 32 29 28 30 28 27 32 36 32 28 31 34 34 31 26 25 28 31 32 34 35 36 39 42 46 48 51 53 56 59 60 61 62 62 63 65 64 65 67 65 63 63 63 62 64 67 70 74 74 69 66 66 63 59
69 66 61 59 54 49 49 48 48 51 53 53 47 41 41 40 38 40 41 42 42 38 37 38 39 41 38 33 40 45 40 36 35 33 33 35 36 33 32 37 37 35 37 36 30 26 25 26 29 31 33 34 35 37 41 45 47 49 52 54 56 58 60 63 63 62 64 66 66 66 66 65 63 62 63 64 65 68 71 75 75 71 68 68 65 61
68 66 62 64 61 53 49 46 44 47 50 50 48 44 42 39 38 40 41 41 42 41 39 38 39 43 42 38 39 42 44 43 37 35 35 37 38 36 36 41 40 37 41 38 28 24 25 26 29 32 32 34 36 39 43 47 49 50 53 54 56 59 61 63 63 63 66 68 67 66 65 64 62 61 63 66 67 68 71 75 76 72 71 69 66 63
68 66 61 63 63 56 52 49 42 42 46 47 46 46 43 40 39 40 40 41 42 43 42 38 40 45 46 44 44 45 48 47 38 33 35 38 39 36 34 34 35 39 45 39 28 25 25 27 30 33 34 36 38 40 43 47 49 51 53 55 57 61 62 63 65 65 66 68 67 64 63 63 62 61 63 67 69 69 71 74 74 73 72 70 68 64
65 65 63 63 61 57 55 54 47 41 41 41 42 44 43 41 41 41 41 43 43 43 43 38 39 45 46 46 49 49 47 42 34 30 33 37 39 37 33 31 35 43 43 32 26 25 25 26 30 33 36 37 38 41 44 47 50 52 55 58 61 63 64 65 66 65 65 67 67 63 61 62 63 62 63 67 70 70 71 74 75 74 73 72 70 65
63 62 60 61 63 60 56 55 51 44 41 40 40 42 42 42 43 43 42 44 44 44 44 40 39 41 42 45 51 50 45 40 36 34 34 34 33 33 36 39 42 44 35 25 24 25 25 26 30 33 37 38 39 42 45 49 53 55 58 60 63 65 66 67 66 63 63 65 64 60 59 61 63 62 62 65 69 71 74 77 77 75 73 74 71 65
60 55 55 59 61 59 55 55 56 50 45 44 42 42 41 40 41 40 38 42 44 43 41 39 38 40 42 46 51 48 42 40 40 38 36 34 33 31 32 36 39 38 31 24 25 25 25 27 30 34 36 37 40 44 47 51 53 54 57 58 61 65 67 67 66 63 62 64 62 58 56 58 62 62 62 63 64 66 70 76 78 75 73 72 70 64
57 55 62 66 64 63 59 55 57 56 52 50 44 40 38 36 37 37 35 36 38 38 38 35 35 39 42 45 46 41 38 41 44 42 37 35 34 32 30 31 32 32 29 26 25 25 25 28 31 34 36 39 42 47 51 52 51 51 54 56 59 63 64 66 65 63 62 63 62 59 56 58 62 63 63 62 61 63 66 70 76 78 78 76 71 66
56 59 69 72 70 69 61 53 56 56 52 49 43 39 36 34 35 36 36 36 34 33 33 31 31 36 39 40 39 34 36 42 43 38 32 29 29 30 29 29 29 29 29 28 26 25 27 30 33 36 39 41 45 48 50 50 49 51 53 55 57 60 61 63 64 63 63 62 63 62 58 57 61 63 63 62 63 65 64 66 71 75 77 78 74 69
57 58 62 62 60 61 57 54 56 54 48 44 42 39 36 33 34 36 35 35 31 28 27 28 30 33 34 35 35 32 36 40 37 31 28 26 26 28 29 29 29 29 29 28 27 28 30 34 36 38 40 43 47 49 50 49 49 51 53 54 55 59 60 61 62 63 64 63 64 64 60 57 59 62 64 65 66 67 65 64 66 68 71 74 74 73
61 62 63 61 57 58 58 54 52 50 47 44 43 40 35 33 33 34 35 34 30 28 26 24 27 31 32 33 31 31 36 39 32 27 27 26 27 30 31 30 30 29 29 29 30 31 35 37 40 42 44 47 50 51 50 49 49 51 53 53 55 58 60 60 60 62 64 64 66 66 63 60 59 62 66 68 67 67 67 66 65 67 70 75 77 77
66 70 73 72 62 58 61 56 49 47 46 43 43 40 36 35 34 32 33 33 30 28 26 23 25 29 31 31 29 29 36 37 29 26 28 28 30 34 35 32 30 30 31 32 33 35 38 41 44 46 49 51 53 52 50 49 49 50 52 54 56 59 60 60 60 61 62 64 66 68 66 63 61 62 66 67 67 68 68 68 67 68 70 74 77 77
68 73 77 79 69 61 66 62 48 42 45 48 48 41 34 36 38 33 31 31 28 26 25 24 25 27 29 30 28 30 36 35 29 30 33 33 33 37 38 36 33 32 33 35 36 38 40 43 46 49 50 50 50 50 48 48 48 50 53 54 56 58 59 60 61 61 61 63 66 67 66 63 61 61 63 65 65 67 68 68 68 69 70 73 76 74
71 72 74 78 70 63 67 64 50 47 58 62 56 45 35 34 35 35 33 31 28 25 24 24 25 26 29 29 28 33 38 35 32 36 39 36 36 38 39 38 36 35 35 38 40 41 41 44 48 49 49 48 48 49 49 49 51 53 54 55 56 58 58 60 62 62 62 63 64 64 63 61 60 61 62 63 62 64 65 65 66 68 69 70 71 68
70 73 74 74 68 62 65 63 52 53 66 66 57 48 39 32 31 34 34 32 28 24 23 24 24 25 27 29 30 34 37 37 40 45 43 38 39 40 39 38 38 38 38 39 40 42 43 46 48 47 47 47 49 49 51 52 55 56 56 57 57 57 58 59 60 61 62 62 63 63 62 61 61 62 62 62 62 62 63 63 63 65 66 68 67 65
65 71 74 71 66 61 62 62 54 55 64 63 54 46 38 32 32 35 37 37 34 30 25 23 24 26 28 30 32 34 37 41 45 48 44 41 42 41 39 38 39 40 40 39 41 44 45 46 46 46 46 47 47 49 51 53 56 57 58 59 59 59 60 61 60 61 62 63 63 63 62 60 60 61 62 62 63 63 64 65 64 64 64 65 67 65
66 71 70 65 61 58 60 62 58 60 64 61 53 43 34 34 37 37 40 41 37 34 32 28 27 28 29 33 37 40 43 44 43 45 46 45 44 42 41 40 41 40 40 42 44 45 45 45 45 45 46 46 48 50 52 53 55 57 58 58 59 60 60 60 59 59 60 60 60 59 59 59 59 61 63 65 66 67 68 68 67 65 65 65 66 65
67 70 67 62 57 55 58 59 59 64 65 58 51 44 37 39 44 44 44 43 36 35 36 32 30 30 29 34 41 44 43 42 41 45 49 47 44 44 44 43 42 40 41 42 43 43 44 46 47 47 49 50 51 52 53 53 54 55 55 55 55 56 56 56 56 56 56 57 57 57 58 60 61 64 67 68 69 69 69 68 67 67 67 66 66 65
65 69 70 67 61 60 65 65 64 69 67 58 56 54 47 46 52 51 48 45 39 35 35 32 31 31 29 32 39 40 40 41 43 46 48 46 44 45 46 45 44 42 42 44 46 47 48 49 49 50 52 53 54 54 54 54 55 56 56 55 54 54 55 56 56 55 54 55 55 56 58 60 62 66 68 69 69 70 70 70 69 69 67 65 64 62
61 64 66 67 64 64 67 67 65 66 63 58 60 61 52 49 54 55 50 47 42 37 34 34 35 34 34 36 41 41 41 45 47 47 46 45 44 44 45 47 46 45 45 47 50 50 47 46 47 48 51 52 54 55 54 53 54 56 57 55 54 54 55 55 55 54 55 56 56 56 58 58 59 60 62 64 67 69 70 70 68 66 65 63 62 60
60 59 59 64 66 66 66 65 61 59 61 62 62 59 52 49 54 54 50 50 47 41 38 38 41 43 44 45 47 48 49 50 49 47 46 45 44 43 44 45 46 47 47 48 50 48 44 43 45 48 50 52 53 54 54 53 53 53 53 51 51 51 52 53 53 54 56 56 55 55 55 54 52 53 55 58 62 65 66 65 63 62 62 61 62 60
63 55 55 62 66 66 68 68 63 62 65 67 64 60 54 51 53 55 53 53 51 47 43 42 44 47 49 48 48 51 53 53 50 47 46 45 44 44 45 46 47 48 49 50 50 48 45 45 48 51 53 54 55 55 54 52 51 49 49 49 49 49 50 50 51 51 52 52 51 51 51 50 50 53 55 57 61 66 67 65 63 64 64 64 65 64
67 56 52 56 61 65 68 67 63 65 70 69 65 63 59 54 53 54 54 52 50 48 46 45 44 47 50 51 51 52 53 53 50 47 45 44 44 45 48 49 50 51 52 52 52 51 50 49 50 53 55 56 56 55 52 49 48 48 50 51 51 50 51 51 50 50 50 50 50 51 51 51 51 53 55 56 58 62 65 65 64 66 67 65 64 64
65 58 53 53 57 63 67 67 64 66 70 69 67 66 63 56 50 49 50 50 48 47 46 46 47 48 49 50 51 52 51 50 48 46 46 47 48 50 52 53 52 52 53 53 53 54 53 51 51 53 54 54 54 52 50 48 47 49 51 53 53 52 52 52 52 52 52 53 53 53 53 53 53 54 56 57 57 58 61 63 64 65 65 64 60 58
62 65 63 57 58 66 71 71 69 69 70 71 69 66 64 59 52 48 48 47 47 48 47 46 47 47 47 47 47 48 51 52 51 49 50 51 52 53 55 55 52 51 52 53 55 56 54 52 52 52 51 51 51 50 49 49 49 51 53 54 53 53 53 53 53 54 54 55 55 55 56 56 55 56 57 59 61 61 61 61 63 64 64 63 60 56
63 71 72 67 69 77 77 76 76 76 74 75 72 69 68 65 60 55 53 50 50 51 52 49 48 47 47 47 47 48 53 57 56 55 55 55 54 55 58 59 57 55 57 59 59 57 55 53 53 52 51 51 50 50 51 52 52 53 54 55 54 53 53 54 54 55 56 57 58 59 60 60 60 59 59 61 64 66 65 65 67 67 66 66 65 62